ORBCOMM FM117 [+] (41188 NORAD) Tracking and Keplerian Element Data

This shows tracking and keplerian element data for the satellite.

Feedback or suggestion? Click here.




ElementValue
Catalog41188
NameORBCOMM FM117 [+]
Epoch Orbit30870
Epoch Day269.60259344
Epoch Year2021
RAAN25.4916
Inclination47.0027
Eccentricity0.0003307
Argument of Perigee225.3455
Mean Anonmoly134.7159
Mean Motion14.54912853
Decay Rate4.9E-07
L11 41188U 15081K 21269.60259344 .00000049 00000-0 49605-4 0 9991
L22 41188 47.0027 25.4916 0003307 225.3455 134.7159 14.54912853308700

Live tracking and technical data element details for ORBCOMM FM117 [+] (NORAD 41188). ORBCOMM FM117 [+] can be tracked NOW for your location showing map with azimuth and elevation plus other details from your city location.

Track the satellite on the map from your city or location and see movement details for azimuth, elevation, latitude, longitude, range, height, and movement on the map or in text.







IsCatalogInMostPopularTable: catalog: 41188, numindb: 561
Update: records affected: 1



GetName: 41188 ORBCOMM FM117 [+]

Hit Count: updated at: Tue, 28 Sep 2021 17:10:54 GMT